Weather History for Troy, MI

Change the Weather History Date:

Wednesday, November 21, 2012

  Actual Average (KDET) Record (KDET)
Temperature  
Mean Temperature 50 °F -  
Max Temperature 61 °F 43 °F 63 °F (1992)
Min Temperature 39 °F 32 °F 14 °F (2014)
Degree Days  
Heating Degree Days 15    
Moisture  
Dew Point 41 °F    
Average Humidity 73    
Maximum Humidity 93    
Minimum Humidity 44    
Precipitation  
Precipitation 0.00 in - - ()
Sea Level Pressure  
Sea Level Pressure 30.21 in    
Wind  
Wind Speed 2 mph (SSW)    
Max Wind Speed 9 mph    
Max Gust Speed -    
Visibility 7 miles    
Events      
Averages and records for this station are not official NWS values.
T = Trace of Precipitation, MM = Missing Value Source: NWS Daily Summary

Daily Weather History Graph

Daily Weather History Graph

Search for Another Location

Airport:

Trip Planner

Search our weather history database for the weather conditions in past years. The results will help you decide how hot, cold, wet, or windy it might be!

Date:

Astronomy

Nov. 21, 2012 Rise Set
Actual Time 7:31 AM EST 5:05 PM EST
Civil Twilight 7:01 AM EST 5:35 PM EST
Nautical Twilight 6:26 AM EST 6:10 PM EST
Astronomical Twilight 5:53 AM EST 6:44 PM EST
Moon 1:28 PM EST (11/21) 12:41 AM EST (11/21)
Length of Visible Light 10h 34m
Length of Day
9h 33m
First Quarter, 61% of the Moon is Illuminated
Nov 21
First Quarter
Nov 28
Full
Dec 6
Last Quarter
Dec 13
New
Dec 20
First Quarter

Hourly Weather History & Observations

Time (EST) Temp. Windchill Dew Point Humidity Pressure Visibility Wind Dir Wind Speed Gust Speed Precip Events Conditions
12:15 AM 49.6 °F - 44.8 °F 83% 30.18 in 7.0 mi Calm Calm - N/A   Overcast
12:34 AM 49.1 °F - 44.8 °F 85% 30.18 in 7.0 mi Calm Calm - N/A   Overcast
12:55 AM 48.7 °F - 44.6 °F 86% 30.18 in 7.0 mi Calm Calm - N/A   Overcast
1:14 AM 47.3 °F - 43.7 °F 87% 30.18 in 5.0 mi Calm Calm - N/A   Mostly Cloudy
1:35 AM 46.4 °F - 43.0 °F 88% 30.18 in 5.0 mi Calm Calm - N/A   Scattered Clouds
1:54 AM 45.5 °F - 42.6 °F 90% 30.18 in - Calm Calm - N/A   Unknown
2:15 AM 44.4 °F - 41.9 °F 91% 30.18 in 4.0 mi Calm Calm - N/A   Clear
2:35 AM 44.6 °F - 41.9 °F 90% 30.19 in 4.0 mi Calm Calm - N/A   Clear
2:54 AM 43.7 °F - 41.4 °F 91% 30.19 in 4.0 mi Calm Calm - N/A   Clear
3:15 AM 43.7 °F - 41.4 °F 91% 30.19 in 4.0 mi Calm Calm - N/A   Clear
3:35 AM 42.8 °F - 40.5 °F 91% 30.20 in 4.0 mi Calm Calm - N/A   Clear
3:54 AM 42.6 °F - 40.3 °F 91% 30.20 in 3.0 mi Calm Calm - N/A   Clear
4:15 AM 42.8 °F - 40.5 °F 91% 30.20 in 4.0 mi Calm Calm - N/A   Clear
4:34 AM 42.6 °F - 40.3 °F 91% 30.20 in 4.0 mi Calm Calm - N/A   Clear
4:55 AM 41.4 °F - 39.2 °F 92% 30.21 in 3.0 mi Calm Calm - N/A   Scattered Clouds
5:14 AM 40.6 °F - 38.5 °F 92% 30.22 in 2.5 mi Calm Calm - N/A   Clear
5:35 AM 40.5 °F - 38.5 °F 93% 30.22 in 2.5 mi Calm Calm - N/A   Clear
5:55 AM 40.6 °F - 38.8 °F 93% 30.22 in 4.0 mi Calm Calm - N/A   Clear
6:14 AM 40.6 °F - 38.8 °F 93% 30.22 in 3.0 mi Calm Calm - N/A   Clear
6:35 AM 40.1 °F - 38.3 °F 93% 30.21 in 3.0 mi Calm Calm - N/A   Clear
6:54 AM 39.6 °F - 37.8 °F 93% 30.22 in 2.5 mi Calm Calm - N/A   Clear
7:15 AM 39.7 °F - 37.9 °F 93% 30.24 in 4.0 mi Calm Calm - N/A   Clear
7:35 AM 40.3 °F - 38.3 °F 93% 30.24 in 2.5 mi Calm Calm - N/A   Clear
7:54 AM 40.8 °F - 38.8 °F 93% 30.24 in 2.5 mi Calm Calm - N/A   Clear
8:15 AM 41.2 °F - 39.2 °F 93% 30.24 in 3.0 mi Calm Calm - N/A   Clear
8:34 AM 42.1 °F - 39.9 °F 92% 30.25 in 3.0 mi Calm Calm - N/A   Clear
8:55 AM 44.1 °F - 41.4 °F 90% 30.25 in 4.0 mi Calm Calm - N/A   Clear
9:15 AM 46.4 °F - 42.8 °F 87% 30.25 in 5.0 mi Calm Calm - N/A   Clear
9:34 AM 48.0 °F - 43.3 °F 84% 30.25 in 5.0 mi Calm Calm - N/A   Haze
9:55 AM 50.2 °F - 44.1 °F 79% 30.25 in 5.0 mi Calm Calm - N/A   Haze
10:15 AM 52.7 °F - 43.9 °F 72% 30.25 in 7.0 mi Calm Calm - N/A   Clear
10:34 AM 53.6 °F - 44.8 °F 72% 30.25 in 5.0 mi Calm Calm - N/A   Haze
10:55 AM 54.7 °F - 44.2 °F 68% 30.25 in 7.0 mi Calm Calm - N/A   Clear
11:15 AM 56.1 °F - 43.9 °F 64% 30.25 in 7.0 mi SW 3.5 mph - N/A   Clear
11:34 AM 57.4 °F - 43.0 °F 59% 30.25 in 7.0 mi SW 5.8 mph - N/A   Clear
11:55 AM 58.1 °F - 43.0 °F 57% 30.25 in 7.0 mi South 5.8 mph - N/A   Clear
12:15 PM 58.3 °F - 41.9 °F 54% 30.24 in 10.0 mi SW 5.8 mph - N/A   Clear
12:34 PM 59.0 °F - 41.9 °F 53% 30.23 in 10.0 mi South 5.8 mph - N/A   Clear
12:55 PM 59.4 °F - 41.2 °F 51% 30.23 in 10.0 mi SSW 6.9 mph - N/A   Clear
1:15 PM 60.1 °F - 41.2 °F 50% 30.22 in 10.0 mi South 4.6 mph - N/A   Clear
1:35 PM 60.4 °F - 39.9 °F 47% 30.22 in 10.0 mi South 6.9 mph - N/A   Clear
1:55 PM 60.6 °F - 39.2 °F 45% 30.20 in 10.0 mi WSW 5.8 mph - N/A   Clear
2:14 PM 61.0 °F - 39.2 °F 45% 30.21 in 10.0 mi WSW 8.1 mph - N/A   Clear
2:35 PM 60.8 °F - 39.2 °F 45% 30.20 in 10.0 mi SW 6.9 mph - N/A   Clear
2:54 PM 61.2 °F - 39.2 °F 44% 30.20 in 10.0 mi WSW 6.9 mph - N/A   Clear
3:15 PM 61.3 °F - 39.4 °F 44% 30.19 in 10.0 mi SW 6.9 mph - N/A   Clear
3:35 PM 60.8 °F - 39.2 °F 45% 30.19 in 10.0 mi SSW 9.2 mph - N/A   Clear
3:54 PM 60.8 °F - 39.0 °F 45% 30.19 in 10.0 mi SW 3.5 mph - N/A   Clear
4:15 PM 60.1 °F - 39.2 °F 46% 30.19 in 10.0 mi SW 8.1 mph - N/A   Clear
4:35 PM 59.4 °F - 39.6 °F 48% 30.18 in 10.0 mi SW 8.1 mph - N/A   Clear
5:15 PM 57.4 °F - 40.1 °F 53% 30.18 in 10.0 mi South 5.8 mph - N/A   Clear
5:35 PM 55.8 °F - 40.5 °F 56% 30.19 in 10.0 mi South 4.6 mph - N/A   Clear
5:54 PM 54.7 °F - 40.3 °F 58% 30.19 in 10.0 mi South 3.5 mph - N/A   Clear
6:15 PM 54.5 °F - 40.1 °F 58% 30.20 in 10.0 mi South 5.8 mph - N/A   Clear
6:35 PM 53.6 °F - 40.1 °F 60% 30.19 in 10.0 mi South 5.8 mph - N/A   Clear
6:54 PM 53.6 °F - 39.7 °F 59% 30.19 in 10.0 mi South 5.8 mph - N/A   Clear
7:15 PM 52.7 °F - 39.7 °F 61% 30.20 in 10.0 mi South 3.5 mph - N/A   Clear
7:35 PM 51.8 °F - 39.7 °F 63% 30.20 in 7.0 mi South 4.6 mph - N/A   Clear
7:54 PM 50.9 °F - 39.6 °F 65% 30.20 in 7.0 mi South 4.6 mph - N/A   Clear
8:15 PM 50.9 °F - 39.2 °F 64% 30.19 in 10.0 mi South 5.8 mph - N/A   Clear
8:34 PM 50.4 °F - 39.2 °F 66% 30.19 in 10.0 mi South 3.5 mph - N/A   Clear
8:55 PM 49.3 °F - 39.2 °F 68% 30.19 in 10.0 mi Calm Calm - N/A   Clear
9:15 PM 48.9 °F - 39.4 °F 70% 30.19 in 7.0 mi SW 3.5 mph - N/A   Clear
9:34 PM 47.8 °F - 39.0 °F 71% 30.19 in 7.0 mi SW 3.5 mph - N/A   Clear
9:55 PM 47.5 °F - 39.7 °F 75% 30.20 in 7.0 mi WSW 3.5 mph - N/A   Clear
10:15 PM 47.3 °F - 40.6 °F 78% 30.19 in 7.0 mi SW 4.6 mph - N/A   Clear
10:34 PM 46.8 °F - 40.6 °F 79% 30.19 in 7.0 mi SW 3.5 mph - N/A   Clear
10:55 PM 45.5 °F - 39.7 °F 80% 30.19 in 7.0 mi Calm Calm - N/A   Clear
11:15 PM 45.5 °F 44.2 °F 40.1 °F 81% 30.18 in 7.0 mi SW 3.5 mph - N/A   Clear
11:34 PM 44.8 °F 43.3 °F 40.1 °F 84% 30.19 in 5.0 mi SW 3.5 mph - N/A   Haze
11:55 PM 44.8 °F 42.4 °F 40.5 °F 85% 30.19 in 5.0 mi SW 4.6 mph - N/A   Clear